Москва (Север)

Россия / Московская область     55°55′01″N   37°34′58″E
темп.,
°C
ветер,
м/с
пор.,
м/с
влажн.,
%
обл.,
%
осадки,
мм/ч
давл.,
гПа
погр.,
м
15 апреля, чт
чт1500:00+12юв2255100 0.0 101715
03:00+10всв226188 0.0 101714
06:00+9св3567100 0.0 101791
09:00+13св4555100 0.0 1017271
12:00+17всв454186 0.0 1016902
15:00+19всв6737100 0.0 10161522
18:00+15св71260100 0.0 1017861
21:00+11св71578100 0.0 1018615
16 апреля, пт
пт1600:00+9всв71585100 0.0 1019516
03:00+7всв61489100 0.0 1019494
06:00+7всв61389100 0.0 1020492
09:00+9всв6117893 0.1 1021536
12:00+12в6863100 0.2 1022836
15:00+14в6956100 0.2 10221180
18:00+13всв61162100 0.0 10221022
21:00+11всв71370100 0.0 1023822
17 апреля, сб
сб1700:00+9всв6137594 0.1 1023692
03:00+8всв5117786 0.1 1024529
06:00+6всв5127780 0.0 1025447
09:00+9всв6106372 0.0 1025593
12:00+13всв795036 0.0 1024987
15:00+14всв794448 0.0 10241344
18:00+13всв694730 0.0 10241184
21:00+9всв513488 0.0 1024679
18 апреля, вс
вс1800:00+7всв513561 0.0 1025565
03:00+6св513640 0.0 1025472
06:00+5св513682 0.0 1025481
09:00+8всв611530 0.0 1025762
12:00+12всв67405 0.0 10251437
15:00+13всв67365 0.0 10251865
18:00+12всв574013 0.0 10251560
21:00+9всв5115383 0.0 1026612
19 апреля, пн
пн1900:00+6всв3106681 0.0 1027334
03:00+5св498021 0.0 1028311
06:00+4св498727 0.0 1029328
09:00+7всв57665 0.0 1029727
12:00+10всв564836 0.0 10291447
15:00+11в56385 0.0 10291708
18:00+10всв56385 0.0 10291511
21:00+6всв410471 0.0 1031528